パンスターズ彗星

347P/PanSTARRS (2016)

English version
Home page
Updated on March 25, 2017

---------------------------------------------------------------------

・ プロフィール

符号 347P/2016 SV
発見日 2016年9月21日
発見光度 19.3等
発見者 Pan-STARRS 1 telescope (Haleakala)

・ 写真集

・ 軌道要素

Epoch 2016 Sept. 9.0 TT = JDT 2457640.5
T 2016 Sept. 11.40038 TT                                MPCW
q   2.2239884            (2000.0)            P               Q
n   0.14353556     Peri.   98.45094     +0.97950851     +0.01179764
a   3.6126818      Node   261.04721     -0.08516290     +0.92890605
e   0.3843940      Incl.   11.74385     +0.18251128     +0.37012750
P   6.87
From 139 observations 2002 July 12-2017 Jan. 1, mean residual 0".5.

・ 光度変化

        m1 = 9.0 + 5 logΔ + 25.0 log r(t - 100)

---------------------------------------------------------------------

軌道要素はM.P.E.C. 2017-A77に掲載されたものです。
光度グラフはComet for Windowsで作成したものです。

---------------------------------------------------------------------

Copyright(C) Seiichi Yoshida (comet@aerith.net). All rights reserved.